Hauptseite
METAR-TAF:

METAR-TAF

Flughäfen :

Militärflugplatz Deelen

Arnheim, Niederlande

Breite: 52-04N, Länge: 005-53E, Höhe: 48 m

Beobachtung

Neuester Wetterbericht von vor 26 Minuten, um 21:25 UTC
Wind 5 kt aus West/Nordwest, variierte zwischen West/Nordwest und Nord/Nordost
Temperatur 20°C
Luftfeuchtigkeit 73%
Luftdruck 1011 hPa
Sichtweite 10 km oder mehr
Geschlossene Wolkendecke in der Höhe von 12000 ft

METAR: EHDL 202125Z AUTO 29005KT 300V030 9999 OVC120 20/15 Q1011 BLU

Zeit: 23:51 (21:51 UTC)


TAF: fehlend

Wetterbeobachtungen und Prognosen von mehr als 4000 Flughäfen (METAR und TAF Bericht).

Die verfügbaren Stationen werden durch gelbe und rote Markierungen auf der Karte dargestellt.

Führen Sie die Maus auf sie, um den Namen der Station zu sehen.

Darauf klicken, um die Beobachtung von Wetterbeobachtungen und Prognosen zu sehen.

Um die Karte zu ändern : klicken Sie auf den grünen Tasten mit einem schwarzen Kreuz Zum Vergrößern, auf den grünen Button mit einem Gedankenstrich zu verkleinern, oder auf die grünen Pfeile für benachbarte Karten.


METAR-TAF: